Location: Killam
(52.7910°N, 111.8608°W)
Time: 18:21:30
(UTC+00:00)

Explorer 7 - Visible Passes

Search period start: 18 February 2026 00:00
Search period end: 28 February 2026 00:00
Orbit: 431 x 545 km, 50.2° (Epoch: 18 February)

Date Brightness Start Highest point End Pass type
(mag) Time Alt. Az. Time Alt. Az. Time Alt. Az.
18 Feb 7.1 02:26:30 10° W 02:30:08 50° SSW 02:31:40 30° SE visible
18 Feb 9.4 04:05:06 10° W 04:06:03 15° WSW 04:06:03 15° WSW visible
19 Feb 7.2 02:00:51 10° W 02:04:28 50° SSW 02:07:13 17° ESE visible
19 Feb 8.8 03:39:26 10° W 03:41:35 21° SW 03:41:35 21° SW visible
20 Feb 7.2 01:35:10 10° W 01:38:45 51° SSW 01:42:30 10° ESE visible
20 Feb 8.4 03:13:44 10° W 03:16:44 23° SSW 03:17:10 22° SSW visible
21 Feb 8.5 02:48:00 10° W 02:51:01 23° SSW 02:52:48 17° S visible
22 Feb 8.6 02:22:14 10° W 02:25:16 23° SSW 02:28:22 10° SSE visible
23 Feb 8.6 01:56:27 10° W 01:59:29 24° SSW 02:02:35 10° SSE visible
24 Feb 8.7 01:30:38 10° W 01:33:40 24° SSW 01:36:48 10° SSE visible
